This is the latest recevied weather packets stored in our database for station/object KD0MAC. If no packets are shown the sender has not sent any weather packets the latest 10 day(s).
| Time | Temp. | Humidity | Pressure | Rain* | Wind** | Luminosity | Snow |
|---|---|---|---|---|---|---|---|
| 1788624535 | 30.56° C | 53% | 1015.2 hPa | 0 mm | - | 187 W/m² | - |
| 1788624275 | 30.56° C | 51% | 1015.2 hPa | 0 mm | - | 356 W/m² | - |
| 1788624235 | 30.56° C | 51% | 1015.2 hPa | 0 mm | - | 356 W/m² | - |
| 1788623976 | 31.11° C | 50% | 1015.2 hPa | 0 mm | - | 247 W/m² | - |
| 1788623935 | 31.11° C | 50% | 1015.2 hPa | 0 mm | - | 247 W/m² | - |
| 1788623635 | 31.11° C | 50% | 1014.9 hPa | 0 mm | - | 359 W/m² | - |
| 1788623375 | 30.56° C | 50% | 1014.9 hPa | 0 mm | - | 326 W/m² | - |
| 1788623334 | 30.56° C | 50% | 1014.9 hPa | 0 mm | - | 326 W/m² | - |
| 1788623076 | 31.11° C | 49% | 1014.9 hPa | 0 mm | - | 337 W/m² | - |
| 1788622776 | 30° C | 51% | 1014.9 hPa | 0 mm | - | 267 W/m² | - |
| 1788622734 | 30° C | 51% | 1014.9 hPa | 0 mm | - | 267 W/m² | - |
| 1788622440 | 30° C | 51% | 1014.9 hPa | 0 mm | - | 249 W/m² | - |
| 1788622134 | 30° C | 52% | 1014.9 hPa | 0 mm | - | 166 W/m² | - |
| 1788621834 | 30° C | 53% | 1014.9 hPa | 0 mm | - | 263 W/m² | - |
| 1788621575 | 29.44° C | 56% | 1014.9 hPa | 0 mm | - | 215 W/m² | - |
| 1788621534 | 29.44° C | 56% | 1014.9 hPa | 0 mm | - | 215 W/m² | - |
| 1788621277 | 28.89° C | 57% | 1014.9 hPa | 0 mm | - | 288 W/m² | - |
| 1788621234 | 28.89° C | 57% | 1014.9 hPa | 0 mm | - | 288 W/m² | - |
| 1788620935 | 28.89° C | 58% | 1014.9 hPa | 0 mm | - | 185 W/m² | - |
| 1788620634 | 28.89° C | 57% | 1014.9 hPa | 0 mm | - | 228 W/m² | - |
| 1788620335 | 28.89° C | 60% | 1014.9 hPa | 0 mm | - | 307 W/m² | - |
| 1788620034 | 28.33° C | 58% | 1014.9 hPa | 0 mm | - | 188 W/m² | - |
| 1788619734 | 27.78° C | 59% | 1014.6 hPa | 0 mm | - | 292 W/m² | - |
| 1788619434 | 27.22° C | 61% | 1014.6 hPa | 0 mm | - | 244 W/m² | - |
| 1788619134 | 27.22° C | 63% | 1014.6 hPa | 0 mm | - | 246 W/m² | - |
* Rain latest hour (hover to see other rain measurements)
** Current wind speed in m/s (hover to see current wind gust speed)